Погода в Среднекане

Погода в Среднекане : погода сейчас, прогноз погоды и архив. Всё, что Вы хотите узнать о погоде в Среднекане!

Поиск расширенной информации на нашем сайте:

Другие новости

Новости СМИ2

Главная страница сайта

Новости сайта

03.07.2017

Напоминаем, что на нашем специализированном сайте Метеоцентр.Азия вы можете получить высокодетализированные автоматические прогнозы погоды по пунктам России, СНГ и мира в авиационном формате (включающие направление и скорость ветра, видимость, явления погоды, количество и форму облачности, нижнюю и верхнюю границу облачности).


Погода в Среднекане - сегодня

Время (UTC), дата Ветер
(°,м/с) 
Видим.   Явления Облачность Т
(°С)
Тd
(°С)
f(%) Тe
(°С)
Pmin
(гПа)
dP
(гПа)
Po
(мм)
O2
(г/м3)
Тmin Tmax R s Состояние
почвы
03 19.07.18 030 (СВ) 20000 м  {ливн. осадки}  10/10 1000 м кучево-дожд. 
[Cb cap]
+6.8 +3.5 79 +8  1013.1  0.4  736  289           
06 19.07.18 200 (Ю) 20000 м  слаб. ливневой дождь  10/10 1000 м кучево-дожд. 
[Cb cap]
+7.2 +5.4 88 +7  1013.4  0.4  736  288           
12 19.07.18 150 (ЮВ) 20000 м  {ливн. осадки}  10/10 1000 м кучево-дожд. 
[Cb calv]
+6 +5.4 96 +7  1014.9  0.6  737  290           
15 19.07.18 110 (В) 20000 м    10/10 1000 м кучево-дожд. 
[Cb calv]
+5.3 +4.9 97 +6  1015.1  0.1  737  291           
18 19.07.18 120 (ЮВ) н/о    н/о 
+4.6 +4.3 98 +5  1015  -0.2  737  291           
21 19.07.18 тихо ()   20000 м  дым  9/8 1000 м кучево-дожд., средняя 
[Cb calv|Ac trans]
+9.4 +5.3 76 +9  1015.1  0.6  738  286  +4        влажная 
03 20.07.18 090 (В) 20000 м  дым  9/9 1000 м кучево-дожд. 
[Cb calv]
+14.1 +3.2 48 +15  1013.3  -0.6  737  282           
06 20.07.18 360 (С) 20000 м  дым  5/3 1000 м средняя, верхняя 
[Cu med, cong|Ac trans|Ci fib]
+16.4 +3.7 43 +18  1012.3  -0.8  736  279           
12 20.07.18 040 (СВ) 20000 м  дым  3/0 средняя 
[Ac trans]
+9.3 +5.5 77 +10  1012.9  0.1  736  286           
15 20.07.18 110 (В) н/о    н/о 
+4 +3.4 96 +5  1013.3  -0.2  736  292           
18 20.07.18 090 (В) 20000 м  дым  ясно 
+2.6 +2.3 98 +3  1013.2  -0.3  736  293           
00 21.07.18 340 (С) н/о    н/о 
+16.9 +6.7 51 +18  1009.1  -1.9  734  277           
03 21.07.18 330 (СЗ) 20000 м    6/0 верхняя 
[Ci fib]
+21.6 +1.8 27 +22  1006.4  -2.1  732  273           
06 21.07.18 040 (СВ) 20000 м    5/0 верхняя 
[Ci fib]
+24.4 +4.8 28 +24  1004.6  -1.4  731  270           
12 21.07.18 100 (В) 20000 м  дым  10/0 средняя, верхняя 
[Ac trans|Ci fib]
+12 +7.6 74 +12  1005.4  0.1  731  281           
15 21.07.18 100 (В) 20000 м  дым  10/0 средняя, верхняя 
[Ac trans|Ci fib]
+7.8 +6.2 90 +9  1006  0.1  731  285           
18 21.07.18 тихо ()   н/о    н/о 
+5.4 +4.9 97 +5  1006.8  0.5  731  288           
21 21.07.18 350 (С) 20000 м  дым  10/0 верхняя 
[Ci fib]
+12.4 +6.9 69 +14  1007.4  1.3  732  281  +5.2        сухая 
03 22.07.18 350 (С) 20000 м  дым  10/0 верхняя 
[Ci fib]
+23.1 +11.5 48 +27  1007.7  0.2  734  270           
06 22.07.18 360 (С) 20000 м  дым  10/0 верхняя 
[Ci fib]
+20.8 +11.6 56 +25  1007.7  -0.2  733  272           
12 22.07.18 330 (СЗ) 20000 м  дым  8/3 1000 м средняя, верхняя 
[Sc|Ac trans|Ci fib]
+13.7 +11.2 85 +18  1007.7  -0.6  733  279           
15 22.07.18 050 (СВ) 20000 м  дым  10/4 1000 м средняя, верхняя 
[Sc|Ac trans|Ci fib]
+10.7 +10.3 97 +14  1007.1  -1  732  282           
18 22.07.18 тихо ()   0500 м  туман  10/4 1000 м верхняя 
[Sc|Ci fib]
+7.9 +7.7 99 +8  1006.9  -0.5  732  285           
21 22.07.18 210 (ЮЗ) н/о  туман  10/0 средняя, верхняя 
[Ac trans|Ci fib]
+14.3 +11.4 83 +20  1005.5  -0.6  731  278  +7.6        сухая 
03 23.07.18 190 (Ю) 20000 м  дым  10/0 средняя 
[Ac und]
+29.2 +7.5 26 +29  1002.1  -1.2  730  264           
Время (UTC), дата Ветер
(°,м/с) 
Видим.   Явления Облачность Т
(°С)
Тd
(°С)
f(%) Тe
(°С)
Pmin
(гПа)
dP
(гПа)
Po
(мм)
O2
(г/м3)
Тmin Tmax R s Состояние
почвы

Для получения пояснительной информации подведите курсор к названию столбца.

ПОГОДА в Среднекане - архив

Всё, что Вы хотите узнать о погоде в Среднекане - удобно и подробно!

Выберите нужную дату (начиная с 1 января 2015* года) и нажмите кнопку "Найти".
Будут отображены архивные сводки погоды по пункту Среднекан, начиная с указанной даты.


Отображать данные в формате CSV (для использования в таблицах Excel)


Внимание! Наш архив погоды предназначен исключительно для личного некоммерческого использования в познавательных целях. Если Вам необходимы официальные справки о состоянии погоды (для производственных, юридических, коммерческих и т.п. целей), обращайтесь в органы Росгидромета.

*Примечание: данная дата относится к архиву по метеостанциям СССР (Россия, СНГ, Балтия).
Архив по метеостанциям Зарубежной Европы и Азии (кроме Китая) хранится 10 дней, по другим регионам земного шара (Китай, Африка, Америка, Австралия, Океания) - 1 день.

Среднекан - район местоположения метеостанции


Название, широта, долгота, высота метеостанции:
Среднекан 62.5°ш. 152.3°д. 260 м над ур. моря [Российская Федерация]

Дополнительная информация

В oтличие oт бoльшинства пoгoдных сайтoв мы публикуем пoдрoбную метеoинфoрмацию в детальнoм прoфессиoнальнoм фoрмате.

Характеристики температуры и влажнoсти вoздуха измеряются на высoте 2 м в тени вдали oт зданий и деревьев.
Скoрoсть ветра измеряется на высoте 10 м (на урoвне рoста челoвека скoрoсть ветра ниже в 1.5-2 раза). Если метеoстанция нахoдится в гoрoде или в лесу, тo скoрoсть ветра занижена на 2-4 м/с пo сравнению с oткрытым местoм. Скoрoсть ветра над акватoриями крупных рек и oзёр, а также на вершинах хoлмoв на 2-5 м/с выше, чем в oбычных услoвиях.
Атмoсфернoе давление в разных тoчках местнoсти мoжет значительнo oтличаться oт давления на метеoстанции, в зависимoсти oт услoвий рельефа (при пoдъёме на 10 м давление пoнижается примернo на 1 мм рт.ст.).